User: anonymous   Login
Location: Caltech
(34.1382°N, 118.1253°W)
Time: 09:37:21
(UTC-07:00)
Language:

OAO 1 Rocket - Orbit

View from above orbital plane
View from above orbital plane
View from above satellite
View from above satellite

Ground track
Ground track

The orbit data is extracted from the following two-line orbital elements,

1  2144U 66031B   17147.89458797 +.00000042 +00000-0 +18394-4 0  9999
2  2144 035.0433 313.6755 0008744 343.7255 016.3153 14.42620486684759
Epoch (UTC): 27 May 2017 21:28:12
Eccentricity: 0.0008744
inclination: 35.0433°
perigee height: 743 km
apogee height: 756 km
right ascension of ascending node: 313.6755°
argument of perigee: 343.7255°
revolutions per day: 14.42620486
mean anomaly at epoch: 16.3153°
orbit number at epoch: 68475

The dashed part of the orbit path shows where the satellite is in the earth's shadow,  

DLR